Date,TemperatureHighF,TemperatureAvgF,TemperatureLowF,DewpointHighF,DewpointAvgF,DewpointLowF,HumidityHigh,HumidityAvg,HumidityLow,PressureMaxIn,PressureMinIn,WindSpeedMaxMPH,WindSpeedAvgMPH,GustSpeedMaxMPH,PrecipitationSumIn
2013-1-1,53,39,26,28,26,20,89,61,30,30.30,30.13,8,2,8,0.00
2013-1-2,59,44,29,29,25,22,80,50,25,30.17,30.00,11,2,12,0.00
2013-1-3,60,45,37,29,25,19,71,47,28,30.18,30.01,13,3,15,0.00
2013-1-4,58,43,32,30,27,25,79,56,31,30.29,30.18,9,1,9,0.00
2013-1-5,64,46,32,28,25,21,74,47,24,30.35,30.22,9,2,12,0.00
2013-1-6,65,47,36,25,20,14,59,38,15,30.22,29.94,12,2,13,0.00
2013-1-7,57,44,31,29,26,22,72,51,33,29.96,29.83,11,2,11,0.00
2013-1-8,62,45,30,29,26,21,75,49,22,30.13,29.92,11,1,11,0.00
2013-1-9,74,51,34,28,20,6,65,36,8,30.22,30.03,10,2,12,0.00
2013-1-10,66,52,36,38,22,16,73,34,16,30.04,29.78,21,4,23,0.00
2013-1-11,46,38,30,33,22,7,91,55,21,30.07,29.88,22,2,25,0.05
2013-1-12,45,33,23,18,11,-1,71,42,15,30.18,30.02,12,2,12,0.00
2013-1-13,46,32,21,15,10,0,68,41,17,30.20,30.07,9,2,11,0.00
2013-1-14,43,30,20,12,7,3,65,39,20,30.31,30.12,13,2,13,0.00
2013-1-15,45,32,17,9,0,-10,67,30,10,30.45,30.30,24,4,24,0.00
2013-1-16,59,41,25,12,6,0,44,25,12,30.44,30.26,11,1,12,0.00
2013-1-17,72,51,34,18,13,8,40,24,9,30.27,30.13,10,2,11,0.00
2013-1-18,73,54,37,23,19,12,46,27,10,30.21,30.07,10,2,12,0.00
2013-1-19,76,57,38,22,18,11,47,25,9,30.21,30.08,11,3,13,0.00
2013-1-20,77,59,43,37,24,17,41,27,15,30.13,29.96,12,2,13,0.00
2013-1-21,80,59,45,33,27,23,46,31,17,30.07,29.95,9,2,10,0.00
2013-1-22,79,61,46,34,29,24,48,31,17,30.13,30.02,10,2,10,0.00
2013-1-23,81,61,46,32,28,24,44,30,16,30.17,30.04,8,1,8,0.00
2013-1-24,64,58,51,54,42,29,86,57,36,30.18,30.09,7,1,8,0.08
2013-1-25,76,62,50,48,46,44,80,60,33,30.15,29.92,9,1,10,0.00
2013-1-26,62,57,53,57,53,48,96,85,63,29.96,29.84,23,2,23,1.10
2013-1-27,64,56,49,52,49,47,97,79,55,29.99,29.89,13,2,13,0.01
2013-1-28,54,49,42,49,39,28,86,70,50,30.01,29.87,16,4,18,0.01
2013-1-29,50,41,32,34,26,17,89,58,27,30.25,30.01,16,2,18,0.00
2013-1-30,59,44,29,28,21,6,84,46,13,30.38,30.24,11,2,12,0.00
2013-1-31,62,46,32,36,29,24,77,55,29,30.29,30.12,8,2,8,0.00
2013-2-1,72,52,35,36,30,22,72,46,16,30.22,30.12,9,2,11,0.00
2013-2-2,75,56,38,37,31,20,70,43,14,30.23,30.08,8,2,9,0.00
2013-2-3,70,58,51,40,32,24,62,39,19,30.12,29.91,11,2,13,0.00
2013-2-4,68,55,44,41,38,34,72,54,33,30.01,29.91,10,2,10,0.00
2013-2-5,72,57,42,43,40,35,84,57,26,30.00,29.88,11,2,12,0.00
2013-2-6,68,55,43,44,39,34,82,58,28,30.01,29.88,15,2,15,0.00
2013-2-7,70,54,40,41,38,30,85,57,28,30.09,29.93,9,2,9,0.00
2013-2-8,66,55,43,37,27,12,75,38,12,29.93,29.74,19,4,21,0.00
2013-2-9,50,42,34,37,29,23,93,61,38,30.06,29.77,17,3,18,0.27
2013-2-10,55,43,29,29,25,19,84,53,26,30.08,29.96,11,2,12,0.00
2013-2-11,49,37,30,35,29,23,96,75,42,30.22,29.99,14,2,15,0.12
2013-2-12,51,39,28,35,30,25,97,73,38,30.34,30.22,10,2,11,0.01
2013-2-13,61,44,30,27,24,17,76,48,21,30.25,30.11,9,2,11,0.00
2013-2-14,67,48,30,30,26,20,78,47,18,30.19,30.03,13,2,13,0.00
2013-2-15,71,55,42,31,23,11,57,30,10,30.23,30.12,14,2,14,0.00
2013-2-16,77,57,38,22,12,-5,42,21,4,30.24,29.96,11,2,14,0.00
2013-2-17,72,55,39,21,14,0,38,22,7,29.96,29.81,17,3,18,0.00
2013-2-18,70,54,40,25,18,0,47,28,7,30.03,29.89,11,2,11,0.00
2013-2-19,69,55,40,32,17,6,54,27,9,29.91,29.67,25,5,25,0.00
2013-2-20,49,39,31,38,32,30,96,79,48,29.98,29.65,21,4,28,0.24
2013-2-21,52,40,30,37,32,29,96,77,45,30.12,29.98,10,1,11,0.62
2013-2-22,55,43,32,38,31,22,92,65,34,30.18,30.03,12,2,13,0.00
2013-2-23,62,47,30,29,25,18,81,48,19,30.17,29.86,11,2,12,0.00
2013-2-24,50,43,37,31,18,3,75,40,15,30.12,29.80,23,4,25,0.00
2013-2-25,57,44,33,22,17,11,54,35,18,30.25,30.06,13,2,14,0.00
2013-2-26,64,47,29,23,18,7,65,36,11,30.10,29.97,13,2,13,0.00
2013-2-27,64,50,39,18,5,-5,35,17,6,30.21,30.09,20,4,20,0.00
2013-2-28,67,51,38,18,12,4,38,22,9,30.30,30.19,12,3,13,0.00
2013-3-1,75,57,41,28,17,6,44,22,10,30.33,30.17,12,2,12,0.00
2013-3-2,83,62,42,31,27,18,54,30,10,30.27,30.05,7,2,8,0.00
2013-3-3,77,63,45,34,24,13,52,27,9,30.07,29.86,18,2,18,0.00
2013-3-4,70,63,50,33,26,17,49,26,17,30.01,29.81,23,3,23,0.00
2013-3-5,78,60,43,35,30,21,64,37,12,30.08,29.93,17,2,17,0.00
2013-3-6,79,64,49,37,31,23,56,33,15,29.98,29.83,12,2,15,0.00
2013-3-7,77,62,44,34,27,16,56,31,10,29.92,29.80,19,3,20,0.00
2013-3-8,61,54,40,48,38,27,90,58,28,29.94,29.69,38,6,38,0.05
2013-3-9,51,45,39,39,37,34,93,75,55,30.11,29.94,19,2,19,0.07
2013-3-10,64,52,41,39,35,25,82,55,24,30.17,30.07,17,3,19,0.00
2013-3-11,71,55,38,37,33,28,80,48,22,30.17,30.00,13,2,13,0.00
2013-3-12,79,61,42,42,35,30,73,43,18,30.07,29.95,11,2,11,0.00
2013-3-13,86,67,47,40,32,24,65,33,12,30.09,29.95,11,3,12,0.00
2013-3-14,91,72,51,36,28,17,45,23,7,30.05,29.91,11,3,11,0.00
2013-3-15,91,71,52,38,26,-10,44,24,2,29.96,29.81,18,2,18,0.00
2013-3-16,86,70,51,35,22,-4,41,20,4,29.83,29.64,20,3,22,0.00
2013-3-17,81,67,54,29,24,13,33,21,8,29.85,29.73,21,3,24,0.00
2013-3-18,81,65,50,34,26,15,44,25,9,29.93,29.83,13,2,13,0.00
2013-3-19,79,65,50,37,30,24,50,29,15,29.98,29.86,14,3,15,0.00
2013-3-20,80,65,49,36,31,23,54,30,13,29.98,29.80,11,2,11,0.00
2013-3-21,75,66,56,38,32,27,41,30,17,29.80,29.65,12,2,13,0.00
2013-3-22,78,66,53,37,31,24,47,28,15,29.74,29.61,20,3,21,0.00
2013-3-23,74,62,50,39,20,-13,55,27,4,29.93,29.74,16,3,17,0.00
2013-3-24,75,59,41,18,5,-13,29,13,4,29.97,29.83,14,3,15,0.00
2013-3-25,81,63,43,20,14,8,33,16,7,29.97,29.84,17,3,17,0.00
2013-3-26,86,68,48,24,15,0,37,16,4,29.92,29.75,16,2,17,0.00
2013-3-27,85,68,49,26,17,5,35,16,7,29.92,29.80,16,3,18,0.00
2013-3-28,82,68,50,33,20,10,30,17,7,29.98,29.87,16,2,16,0.00
2013-3-29,84,70,51,32,20,8,32,17,7,30.02,29.90,17,2,21,0.00
2013-3-30,81,68,54,29,24,10,31,20,7,29.98,29.85,11,2,14,0.00
2013-3-31,84,68,49,33,26,20,45,23,10,29.97,29.82,13,2,14,0.00
2013-4-1,80,68,51,36,28,21,47,25,15,29.93,29.79,13,2,15,0.00
2013-4-2,77,64,48,27,21,14,37,21,11,29.90,29.80,16,3,18,0.00
2013-4-3,82,66,48,31,27,23,42,24,13,29.98,29.88,15,3,17,0.00
2013-4-4,88,70,50,32,22,1,46,21,4,30.00,29.82,13,2,15,0.00
2013-4-5,85,72,55,32,28,22,38,21,11,29.89,29.75,16,3,19,0.00
2013-4-6,84,70,51,34,28,22,37,22,12,29.90,29.73,15,2,16,0.00
2013-4-7,84,70,52,37,31,22,47,27,11,29.81,29.65,12,2,14,0.00
2013-4-8,80,68,45,42,34,26,88,31,15,29.67,29.30,30,8,33,0.13
2013-4-9,63,54,45,43,32,21,92,48,21,29.88,29.51,21,4,24,0.02
2013-4-10,68,56,41,32,28,22,65,38,18,29.98,29.87,16,2,19,0.00
2013-4-11,78,62,41,34,28,20,66,32,12,29.98,29.73,14,2,18,0.00
2013-4-12,75,64,49,32,26,20,41,25,13,29.77,29.68,9,2,11,0.00
2013-4-13,83,68,47,31,25,17,46,22,9,29.80,29.65,14,3,15,0.00
2013-4-14,83,71,58,38,29,20,30,22,10,29.70,29.57,19,5,19,0.00
2013-4-15,85,73,62,37,31,22,38,23,10,29.68,29.58,22,7,24,0.00
2013-4-16,82,71,57,39,30,21,37,23,11,29.73,29.59,23,7,25,0.00
2013-4-17,65,58,49,43,24,7,64,31,13,29.98,29.69,20,5,22,0.00
2013-4-18,71,58,43,18,10,0,33,17,6,30.10,29.96,16,3,16,0.00
2013-4-19,80,63,47,13,1,-20,18,10,2,30.12,29.89,15,3,15,0.00
2013-4-20,83,67,45,21,11,2,23,12,5,29.93,29.82,16,3,17,0.00
2013-4-21,88,72,54,29,15,6,28,13,5,29.97,29.83,13,2,13,0.00
2013-4-22,90,74,51,27,15,-3,28,13,3,29.88,29.68,18,3,19,0.00
2013-4-23,87,74,58,31,20,12,28,14,7,29.77,29.67,15,3,16,0.00
2013-4-24,89,74,56,34,23,2,36,18,4,29.82,29.71,16,3,17,0.00
2013-4-25,82,71,59,31,25,10,33,19,7,29.94,29.76,27,5,27,0.00
2013-4-26,85,69,49,35,29,21,47,24,11,30.03,29.92,15,3,16,0.00
2013-4-27,89,74,55,32,23,12,29,16,6,29.99,29.79,15,2,15,0.00
2013-4-28,93,78,58,29,15,0,25,11,3,29.82,29.64,17,3,17,0.00
2013-4-29,96,79,56,30,12,-7,24,9,2,29.72,29.55,16,2,16,0.00
2013-4-30,93,79,61,30,16,1,21,11,3,29.69,29.56,21,3,21,0.00
2013-5-1,88,77,62,25,19,-2,23,12,4,29.89,29.68,15,3,15,0.00
2013-5-2,91,77,63,24,8,-9,21,8,4,30.00,29.84,24,5,25,0.00
2013-5-3,88,73,54,25,13,-12,26,12,3,29.93,29.69,21,2,21,0.00
2013-5-4,90,70,58,28,18,3,23,14,4,29.72,29.58,16,3,18,0.00
2013-5-5,87,76,67,39,26,15,33,16,7,29.83,29.63,20,6,21,0.02
2013-5-6,82,70,58,52,40,31,77,37,18,29.88,29.77,16,4,16,0.01
2013-5-7,82,69,58,44,36,19,52,32,10,29.90,29.76,33,4,36,0.00
2013-5-8,79,67,54,44,38,30,59,37,17,29.95,29.83,11,2,11,0.00
2013-5-9,81,69,54,43,34,15,58,31,9,29.92,29.80,15,2,16,0.00
2013-5-10,86,70,54,38,33,28,44,27,15,29.97,29.85,15,2,18,0.00
2013-5-11,87,75,57,39,34,28,44,24,12,29.99,29.89,12,2,14,0.00
2013-5-12,91,80,65,39,32,26,33,19,10,30.03,29.82,18,2,21,0.00
2013-5-13,95,81,61,36,25,10,30,15,5,29.95,29.77,15,2,15,0.00
2013-5-14,96,84,69,37,29,11,29,14,7,29.85,29.68,15,2,15,0.00
2013-5-15,95,82,66,41,32,26,32,18,9,29.86,29.69,20,4,23,0.00
2013-5-16,96,81,62,37,26,13,30,15,5,29.80,29.62,16,3,17,0.00
2013-5-17,92,80,69,35,24,6,26,14,4,29.78,29.66,22,3,22,0.00
2013-5-18,88,77,66,32,26,17,26,16,8,29.82,29.71,20,3,20,0.00
2013-5-19,88,76,60,42,35,24,45,25,10,29.82,29.67,15,2,16,0.00
2013-5-20,90,77,59,41,29,16,42,20,8,29.79,29.69,20,3,25,0.00
2013-5-21,93,78,57,27,16,0,25,11,3,29.81,29.66,12,2,12,0.00
2013-5-22,97,82,61,30,21,6,23,12,4,29.70,29.54,16,3,17,0.00
2013-5-23,96,83,72,35,25,12,23,13,5,29.73,29.60,16,4,19,0.00
2013-5-24,96,81,63,41,23,2,29,15,3,29.80,29.68,17,3,17,0.00
2013-5-25,95,80,60,40,22,-20,33,15,1,29.82,29.70,17,3,20,0.00
2013-5-26,94,78,57,30,13,-13,27,11,2,29.85,29.73,16,3,17,0.00
2013-5-27,94,78,60,28,13,-22,20,11,1,29.80,29.61,15,3,16,0.00
2013-5-28,91,77,60,34,25,9,29,16,5,29.66,29.49,22,4,22,0.00
2013-5-29,92,79,61,50,35,29,42,22,11,29.65,29.54,14,2,14,0.00
2013-5-30,95,82,64,52,42,32,53,28,12,29.72,29.61,14,3,18,0.00
2013-5-31,96,83,67,57,45,32,58,30,12,29.75,29.63,14,2,15,0.00
2013-6-1,104,88,67,47,36,19,32,18,5,29.70,29.55,11,2,12,0.00
2013-6-2,104,89,73,44,35,23,29,16,7,29.65,29.50,17,3,19,0.00
2013-6-3,101,87,70,40,26,4,28,13,3,29.69,29.58,19,3,22,0.00
2013-6-4,100,86,68,43,32,19,25,16,6,29.73,29.61,19,3,19,0.00
2013-6-5,98,84,64,35,22,-5,26,12,2,29.76,29.63,12,2,13,0.00
2013-6-6,101,82,65,32,25,20,22,13,6,29.70,29.62,15,2,17,0.00
2013-6-7,104,96,70,35,24,14,21,8,4,29.66,29.49,15,3,16,0.00
2013-6-8,102,90,74,38,22,6,20,10,3,29.70,29.59,18,3,18,0.00
2013-6-9,102,88,69,39,22,-5,28,12,2,29.77,29.64,14,2,14,0.00
2013-6-10,104,89,70,36,24,-1,23,11,2,29.77,29.62,14,3,16,0.00
2013-6-11,105,90,69,28,19,-1,18,9,2,29.75,29.64,14,3,15,0.00
2013-6-12,106,90,71,39,29,23,25,12,6,29.79,29.64,15,3,16,0.00
2013-6-13,102,89,74,49,41,34,31,20,11,29.78,29.61,16,2,16,0.00
2013-6-14,101,88,73,54,47,38,43,26,14,29.73,29.57,16,2,19,0.00
2013-6-15,102,89,72,55,47,41,37,24,15,29.75,29.61,18,3,21,0.00
2013-6-16,103,89,73,50,39,25,31,19,8,29.78,29.65,18,2,18,0.00
2013-6-17,102,87,66,35,28,22,26,14,6,29.79,29.65,15,2,15,0.00
2013-6-18,104,87,70,30,4,-24,19,5,1,29.73,29.58,11,2,19,0.00
2013-6-19,102,87,66,27,14,1,16,7,3,29.66,29.53,17,3,18,0.00
2013-6-20,102,87,67,32,16,-17,24,10,1,29.69,29.58,16,3,18,0.00
2013-6-21,102,88,67,42,24,4,29,12,3,29.73,29.60,20,4,20,0.00
2013-6-22,101,87,66,34,20,-4,26,11,2,29.73,29.58,20,3,20,0.00
2013-6-23,100,88,70,35,22,-6,21,11,2,29.69,29.54,21,4,21,0.00
2013-6-24,99,84,75,40,29,9,24,15,4,29.73,29.60,18,4,23,0.00
2013-6-25,100,87,74,42,23,-4,29,13,3,29.81,29.69,20,2,22,0.00
2013-6-26,102,86,64,33,20,-5,24,11,2,29.89,29.76,13,2,14,0.00
2013-6-27,105,90,71,45,32,21,26,14,7,29.91,29.75,13,2,14,0.00
2013-6-28,110,94,79,46,36,27,25,14,6,29.79,29.62,12,3,12,0.00
2013-6-29,109,96,79,45,39,34,22,15,8,29.70,29.55,18,2,19,0.00
2013-6-30,109,96,84,56,48,40,38,21,10,29.74,29.50,26,4,29,0.00
2013-7-1,107,90,79,64,55,47,46,33,14,29.73,29.60,19,2,20,0.04
2013-7-2,101,88,70,65,57,51,79,37,21,29.88,29.66,30,4,34,0.16
2013-7-3,104,90,73,57,52,44,53,30,16,29.75,29.53,20,2,20,0.00
2013-7-4,103,92,82,59,53,48,44,28,17,29.67,29.52,16,3,17,0.00
2013-7-5,99,86,77,67,61,58,69,45,27,29.69,29.54,20,2,22,0.00
2013-7-6,103,88,73,64,59,54,69,40,21,29.69,29.53,21,2,22,0.00
2013-7-7,106,89,74,68,60,52,80,41,18,29.66,29.52,23,2,25,0.29
2013-7-8,103,90,77,64,59,50,62,38,19,29.76,29.65,19,2,22,0.00
2013-7-9,98,88,77,69,64,58,74,47,31,29.86,29.70,16,3,20,0.02
2013-7-10,97,82,74,72,67,62,92,65,32,29.84,29.69,16,2,17,0.43
2013-7-11,92,81,72,72,68,63,92,65,43,29.84,29.73,17,2,21,0.06
2013-7-12,94,81,70,71,65,60,91,60,35,29.84,29.70,9,2,16,0.15
2013-7-13,99,86,73,70,63,57,83,50,28,29.83,29.67,15,2,20,0.07
2013-7-14,99,88,76,70,63,58,77,47,27,29.78,29.61,14,2,15,0.00
2013-7-15,102,87,73,71,62,56,77,47,23,29.70,29.53,19,2,24,0.17
2013-7-16,90,80,72,69,65,62,87,62,41,29.88,29.68,15,2,15,0.01
2013-7-17,99,86,74,69,61,53,80,47,24,29.89,29.74,12,1,14,0.00
2013-7-18,97,87,75,61,56,50,55,36,22,29.81,29.65,13,2,14,0.00
2013-7-19,97,84,76,68,62,58,73,49,28,29.78,29.63,19,2,19,0.10
2013-7-20,92,78,73,71,67,63,83,70,42,29.77,29.62,16,2,23,0.29
2013-7-21,91,80,71,71,67,63,92,68,42,29.82,29.72,14,2,14,0.00
2013-7-22,91,81,70,69,65,60,87,60,38,29.86,29.76,11,1,12,0.00
2013-7-23,95,85,72,65,62,58,76,49,30,29.86,29.70,15,2,15,0.00
2013-7-24,96,84,76,68,63,61,63,49,35,29.79,29.67,12,2,12,0.00
2013-7-25,89,79,74,72,68,65,90,69,49,29.87,29.76,10,1,12,0.09
2013-7-26,94,79,71,71,69,63,91,73,37,29.96,29.86,24,1,24,0.26
2013-7-27,98,83,72,70,66,61,89,60,33,29.90,29.71,19,1,23,0.00
2013-7-28,100,87,73,68,57,43,77,41,19,29.74,29.61,14,2,16,0.00
2013-7-29,100,88,72,56,48,43,48,27,16,29.86,29.72,12,2,13,0.00
2013-7-30,104,90,76,57,52,49,48,30,17,29.94,29.79,14,3,17,0.00
2013-7-31,102,89,77,61,54,50,50,33,18,29.88,29.75,10,2,18,0.00
2013-8-1,91,84,77,63,60,57,57,45,34,29.82,29.73,12,1,12,0.00
2013-8-2,94,84,77,66,63,58,62,52,36,29.82,29.74,14,1,15,0.00
2013-8-3,101,87,72,64,59,53,72,42,21,29.85,29.73,14,2,16,0.00
2013-8-4,99,86,78,63,58,54,53,39,24,29.84,29.72,11,1,13,0.00
2013-8-5,96,83,72,68,57,52,87,44,24,29.87,29.73,19,2,19,0.07
2013-8-6,85,75,67,68,63,57,93,67,44,29.90,29.81,11,1,11,0.08
2013-8-7,95,82,68,62,56,47,78,46,22,29.92,29.78,15,2,15,0.00
2013-8-8,99,85,69,57,47,33,58,31,11,29.82,29.68,11,2,14,0.00
2013-8-9,102,86,66,46,42,32,42,22,10,29.79,29.66,16,2,17,0.00
2013-8-10,100,87,72,46,39,33,35,20,11,29.86,29.70,15,2,15,0.00
2013-8-11,102,87,69,58,49,35,50,29,21,29.83,29.65,10,2,12,0.00
2013-8-12,102,88,71,59,49,31,58,30,11,29.78,29.66,17,2,23,0.00
2013-8-13,102,88,72,42,36,31,32,17,9,29.83,29.68,16,3,16,0.00
2013-8-14,106,90,74,59,44,32,43,22,9,29.81,29.64,19,2,19,0.00
2013-8-15,104,89,76,60,57,52,55,36,19,29.81,29.66,12,2,13,0.01
2013-8-16,106,89,75,65,56,48,64,36,15,29.82,29.66,18,2,19,0.00
2013-8-17,108,90,73,66,58,48,71,39,14,29.81,29.61,17,2,18,0.00
2013-8-18,106,89,81,58,54,47,44,32,15,29.82,29.68,21,3,22,0.00
2013-8-19,104,90,78,57,53,47,46,30,16,29.81,29.65,13,2,13,0.00
2013-8-20,104,85,76,65,57,54,64,38,19,29.80,29.64,11,2,15,0.11
2013-8-21,97,85,75,62,58,53,64,42,24,29.82,29.71,9,1,11,0.00
2013-8-22,103,83,66,68,59,53,95,49,20,29.82,29.63,31,2,34,0.35
2013-8-23,99,82,69,64,60,55,77,50,25,29.78,29.61,22,3,22,0.00
2013-8-24,93,81,70,68,61,56,93,54,34,29.84,29.70,12,2,15,0.10
2013-8-25,94,77,70,85,67,0,100,74,39,29.88,29.77,8,1,9,0.12
2013-8-26,100,79,71,71,67,58,91,70,32,29.85,29.68,15,1,17,0.30
2013-8-27,102,84,67,69,60,46,89,52,17,29.76,29.63,14,1,16,0.00
2013-8-28,96,82,74,70,63,58,70,55,29,29.84,29.66,12,2,14,0.22
2013-8-29,88,77,70,71,68,64,94,74,49,29.96,29.83,12,1,12,0.18
2013-8-30,90,79,72,71,68,63,89,70,46,29.95,29.83,15,1,15,0.00
2013-8-31,96,84,72,68,65,58,82,55,29,29.87,29.73,12,2,16,0.00
2013-9-1,98,86,71,66,62,58,76,47,29,29.79,29.65,14,2,16,0.00
2013-9-2,98,84,75,66,62,56,66,48,27,29.83,29.65,19,2,21,0.00
2013-9-3,101,85,73,65,60,48,63,45,19,29.79,29.70,16,2,16,0.00
2013-9-4,103,88,71,61,53,44,66,35,14,29.83,29.69,15,2,19,0.00
2013-9-5,103,89,71,55,49,44,48,27,14,29.80,29.67,18,2,18,0.00
2013-9-6,99,82,73,68,58,51,79,48,22,29.83,29.67,26,2,26,0.35
2013-9-7,89,79,69,66,63,57,85,61,35,29.87,29.74,11,1,12,0.02
2013-9-8,86,75,69,69,66,61,93,74,52,29.78,29.66,10,1,11,0.06
2013-9-9,84,74,68,71,66,63,95,78,52,29.74,29.63,10,1,11,0.22
2013-9-10,86,74,63,67,61,56,96,68,38,29.83,29.68,12,2,14,0.10
2013-9-11,91,78,64,63,58,51,86,54,27,29.88,29.76,10,2,11,0.00
2013-9-12,97,81,66,60,55,49,75,44,24,29.79,29.61,12,2,12,0.00
2013-9-13,100,84,67,64,58,44,78,45,15,29.68,29.49,12,1,13,0.00
2013-9-14,98,85,71,64,57,45,70,42,18,29.60,29.49,11,2,12,0.00
2013-9-15,102,87,70,62,55,45,67,37,16,29.66,29.56,11,2,13,0.00
2013-9-16,102,88,74,61,56,53,55,35,21,29.69,29.57,16,2,16,0.00
2013-9-17,102,89,72,61,54,43,61,33,15,29.65,29.50,13,2,15,0.00
2013-9-18,100,86,72,50,42,34,40,23,11,29.63,29.50,13,2,14,0.00
2013-9-19,98,84,66,50,45,41,48,26,16,29.66,29.55,15,2,15,0.00
2013-9-20,100,85,67,56,47,39,44,28,16,29.71,29.60,15,2,15,0.00
2013-9-21,97,83,68,59,55,49,64,40,21,29.72,29.53,15,2,15,0.00
2013-9-22,90,78,65,68,54,37,72,44,24,29.67,29.49,25,4,25,0.01
2013-9-23,90,74,55,42,36,29,50,27,15,29.83,29.66,11,2,11,0.00
2013-9-24,96,75,59,42,36,27,45,27,9,29.88,29.72,12,2,12,0.00
2013-9-25,94,78,61,40,29,18,41,20,7,29.74,29.55,19,4,22,0.00
2013-9-26,91,81,72,56,37,20,55,22,13,29.63,29.50,25,6,27,0.00
2013-9-27,79,70,58,57,40,23,60,35,17,29.87,29.62,13,3,15,0.00
2013-9-28,87,72,53,43,32,22,34,24,16,29.99,29.87,11,2,12,0.00
2013-9-29,90,74,57,42,36,30,43,26,17,29.99,29.85,12,2,12,0.00
2013-9-30,91,75,56,40,32,19,46,24,8,29.90,29.75,12,2,14,0.00
2013-10-1,91,75,56,37,32,27,36,22,11,29.89,29.76,12,2,12,0.00
2013-10-2,89,75,60,46,40,34,49,30,15,29.87,29.71,15,2,15,0.00
2013-10-3,91,75,58,54,43,28,62,35,12,29.77,29.60,17,3,20,0.00
2013-10-4,84,72,60,46,38,20,46,30,19,29.91,29.71,14,2,16,0.00
2013-10-5,84,70,59,20,14,0,19,13,5,30.03,29.91,18,4,21,0.00
2013-10-6,90,71,52,25,19,13,28,16,7,30.05,29.90,13,2,13,0.00
2013-10-7,93,74,54,32,24,15,26,16,9,29.95,29.78,14,2,15,0.00
2013-10-8,88,74,57,34,28,24,31,19,11,29.82,29.67,16,3,17,0.00
2013-10-9,87,76,67,48,37,28,47,25,14,29.69,29.54,25,8,27,0.00
2013-10-10,68,60,54,51,46,39,83,60,34,29.89,29.62,20,4,21,0.00
2013-10-11,76,61,46,43,39,34,75,47,25,29.98,29.85,12,2,12,0.00
2013-10-12,84,66,46,39,35,31,60,34,15,29.93,29.78,14,2,14,0.00
2013-10-13,86,69,52,46,37,29,53,33,14,29.91,29.78,21,3,22,0.00
2013-10-14,81,68,53,46,39,30,63,39,18,29.95,29.83,12,2,13,0.00
2013-10-15,81,66,50,39,30,27,46,28,15,29.89,29.78,5,2,14,0.00
2013-10-16,78,64,46,27,21,9,41,22,7,30.01,29.90,4,2,11,0.00
2013-10-17,79,61,44,27,22,14,43,24,10,30.02,29.85,6,2,10,0.00
2013-10-18,81,64,46,28,23,20,41,23,11,29.97,29.86,12,2,13,0.00
2013-10-19,86,66,48,22,16,6,30,16,5,30.00,29.86,11,2,11,0.00
2013-10-20,83,65,45,21,15,10,30,16,7,29.92,29.78,12,2,13,0.00
2013-10-21,84,66,48,22,16,8,29,16,6,29.94,29.86,10,2,11,0.00
2013-10-22,89,70,51,24,16,3,27,15,4,29.98,29.82,13,2,14,0.00
2013-10-23,91,73,53,31,24,17,30,18,7,29.87,29.74,11,2,13,0.00
2013-10-24,89,71,54,32,25,21,30,19,10,29.91,29.75,13,2,14,0.00
2013-10-25,85,68,50,30,27,23,36,22,13,29.98,29.90,10,2,12,0.00
2013-10-26,86,68,50,32,28,24,43,24,12,30.05,29.91,10,2,10,0.00
2013-10-27,88,70,54,34,28,21,39,22,10,29.93,29.69,14,2,14,0.00
2013-10-28,80,71,65,37,31,23,32,24,13,29.81,29.69,21,6,21,0.00
2013-10-29,79,68,50,40,34,28,57,31,16,29.83,29.71,25,6,28,0.00
2013-10-30,67,55,44,40,33,27,71,46,26,30.02,29.82,13,2,13,0.00
2013-10-31,74,56,39,27,24,19,58,33,14,30.11,29.97,13,2,13,0.00
2013-11-1,80,60,41,27,22,15,48,27,10,30.14,29.98,8,1,9,0.00
2013-11-2,85,66,46,46,19,6,51,20,5,30.02,29.79,24,2,24,0.00
2013-11-3,79,67,54,48,43,35,72,44,25,29.87,29.65,16,2,16,0.00
2013-11-4,78,63,48,56,43,33,81,51,25,29.78,29.62,25,3,25,0.12
2013-11-5,71,59,49,47,43,32,83,58,33,30.08,29.78,11,2,15,0.00
2013-11-6,74,59,46,32,19,11,42,22,12,30.22,30.08,15,3,16,0.00
2013-11-7,81,62,42,27,17,3,31,19,6,30.17,29.99,12,2,13,0.00
2013-11-8,82,66,50,36,31,25,42,29,16,30.03,29.88,9,2,9,0.00
2013-11-9,83,65,48,38,34,32,54,34,18,30.04,29.93,10,1,10,0.00
2013-11-10,86,67,49,38,34,32,51,32,16,30.07,29.93,13,1,13,0.00
2013-11-11,86,69,51,38,35,31,48,30,17,30.02,29.89,13,2,13,0.00
2013-11-12,89,71,54,44,38,32,45,31,19,30.09,29.96,12,2,13,0.00
2013-11-13,81,68,57,45,42,40,58,40,27,30.03,29.88,12,2,13,0.00
2013-11-14,80,66,52,45,40,36,62,42,21,29.95,29.77,12,2,12,0.00
2013-11-15,75,66,55,53,46,36,67,48,32,29.77,29.55,22,6,22,0.00
2013-11-16,72,62,54,52,45,37,88,57,31,29.85,29.63,18,4,20,0.00
2013-11-17,75,61,50,50,45,41,83,58,34,30.01,29.84,13,1,13,0.00
2013-11-18,78,63,50,46,43,39,69,51,29,30.03,29.90,9,2,10,0.00
2013-11-19,57,52,50,42,41,40,70,66,59,29.95,29.92,5,1,5,0.00
2013-11-20,73,63,47,42,39,36,68,43,27,29.85,29.76,11,2,12,0.00
2013-11-21,70,61,51,53,44,37,93,58,32,29.88,29.79,14,2,16,0.10
2013-11-22,65,53,45,55,49,44,96,88,57,29.95,29.72,19,3,21,1.30
2013-11-23,55,48,45,49,45,41,97,90,62,30.07,29.93,11,1,14,1.60
2013-11-24,59,48,41,44,40,35,93,75,53,30.16,30.04,12,2,14,0.00
2013-11-25,61,47,36,42,36,33,90,68,39,30.24,30.13,12,2,12,0.00
2013-11-26,69,52,38,40,34,26,86,56,23,30.28,30.11,8,1,8,0.00
2013-11-27,66,52,44,36,30,23,68,47,20,30.14,29.97,9,2,10,0.00
2013-11-28,72,55,38,36,31,26,68,43,24,30.08,29.97,13,2,13,0.00
2013-11-29,74,58,46,43,38,34,73,50,24,30.15,30.02,8,2,9,0.00
2013-11-30,71,56,46,45,41,38,77,61,37,30.14,30.01,7,1,8,0.00
2013-12-1,73,56,46,47,44,41,83,66,35,30.18,30.07,6,1,10,0.00
2013-12-2,69,54,40,44,40,35,88,63,31,30.12,29.90,4,1,8,0.00
2013-12-3,72,57,42,41,35,14,78,50,12,29.91,29.70,8,2,12,0.00
2013-12-4,64,52,44,46,42,35,95,74,38,29.86,29.67,15,3,24,0.28
2013-12-5,49,43,33,43,35,24,95,74,46,30.12,29.83,7,1,9,0.09
2013-12-6,53,39,28,28,24,19,84,57,28,30.23,30.12,8,1,9,0.00
2013-12-7,55,41,28,32,25,13,86,57,19,30.14,30.01,14,2,14,0.00
2013-12-8,54,47,42,40,36,28,76,66,53,30.12,30.00,12,2,12,0.00
2013-12-9,51,41,31,32,21,8,78,47,27,30.32,30.08,10,2,11,0.00
2013-12-10,59,44,30,20,15,11,55,32,18,30.31,30.13,11,3,12,0.00
2013-12-11,71,53,40,36,26,16,64,37,24,30.21,30.10,14,2,14,0.00
2013-12-12,70,54,42,41,34,27,72,49,33,30.15,30.00,14,2,16,0.00
2013-12-13,62,48,35,34,32,29,81,57,33,30.19,30.07,9,1,10,0.00
2013-12-14,64,48,34,32,27,21,75,46,25,30.30,30.17,9,1,9,0.00
2013-12-15,70,52,37,30,24,21,58,36,16,30.30,30.15,9,1,10,0.00
2013-12-16,45,44,44,26,25,25,49,47,45,30.19,30.18,5,2,5,0.00
2013-12-17,82,60,45,30,26,24,48,29,12,30.19,30.03,11,2,11,0.00
2013-12-18,78,61,48,34,28,21,43,29,13,30.04,29.78,14,2,15,0.00
2013-12-19,68,60,48,40,28,22,73,32,18,29.81,29.61,17,5,25,0.00
2013-12-20,52,45,42,43,40,37,94,83,64,29.83,29.58,26,2,27,0.45
2013-12-21,51,45,40,42,38,34,94,78,61,30.07,29.83,14,2,15,0.02
2013-12-22,59,46,34,41,37,32,93,72,42,30.29,30.07,7,1,7,0.00
2013-12-23,65,48,36,37,33,28,89,60,28,30.37,30.24,7,1,8,0.00
2013-12-24,69,51,36,35,28,24,69,44,19,30.25,30.10,9,2,11,0.00
2013-12-25,66,51,37,35,30,26,70,45,26,30.25,30.13,9,1,11,0.00
2013-12-26,68,49,36,31,25,20,68,43,17,30.23,30.11,6,1,6,0.00
2013-12-27,70,51,37,30,23,18,60,37,14,30.22,30.09,9,1,9,0.00
2013-12-28,65,49,34,30,24,18,57,39,18,30.13,29.95,7,1,9,0.00
2013-12-29,66,52,38,32,27,19,66,42,17,30.12,29.95,8,2,9,0.00
2013-12-30,67,50,34,32,26,22,65,41,21,30.26,30.12,9,1,10,0.00
2013-12-31,73,52,36,28,24,21,57,37,15,30.24,30.07,9,1,10,0.00
2014-1-1,68,51,37,33,28,24,62,43,20,30.15,30.05,8,2,8,0.00
2014-1-2,76,56,40,32,27,22,62,36,14,30.16,30.02,7,2,8,0.00